Tracking 18980 objects as of 20-Feb-2018
HD Live streaming from Space Station
objects crossing your sky now

INTELSAT 4A-F6

Track INTELSAT 4A-F6 now!
INTELSAT 4A-F6 is classified as:


NORAD ID: 10778
Int'l Code: 1978-035A
Perigee: 35,746.2 km
Apogee: 35,815.3 km
Inclination: 13.9 °
Period: 1,435.4 minutes
Semi major axis: 42151 km
RCS: 1.2589 m2 (large)
Launch date: March 31, 1978
Source: International Telecommunications Satellite Organization (ITSO)
Launch site: AIR FORCE EASTERN TEST RANGE (AFETR)
aabbcc
Your satellite tracking list
Your tracking list is empty




NASA's NSSDC Master Catalog

Two Line Element Set (TLE):
1 10778U 78035A   18047.65213997 -.00000325 +00000-0 +00000-0 0  9999
2 10778 013.9328 339.1193 0008195 268.0955 267.1671 01.00318266091656
Source of the keplerian elements: AFSPC